This is the latest recevied weather packets stored in our database for station/object N0ZMJ-4. If no packets are shown the sender has not sent any weather packets the latest 10 day(s).
| Time | Temp. | Humidity | Pressure | Rain* | Wind** | Luminosity | Snow |
|---|---|---|---|---|---|---|---|
| 1777777503 | 15° C | 50% | 1007 hPa | 0 mm | - | - | - |
| 1777777203 | 15.56° C | 49% | 1007.1 hPa | 0 mm | - | - | - |
| 1777776903 | 15.56° C | 48% | 1007 hPa | 0 mm | - | - | - |
| 1777776603 | 15.56° C | 47% | 1006.8 hPa | 0 mm | - | - | - |
| 1777776303 | 16.11° C | 46% | 1006.9 hPa | 0 mm | - | - | - |
| 1777776003 | 16.11° C | 46% | 1007 hPa | 0 mm | - | - | - |
| 1777775702 | 16.11° C | 45% | 1007 hPa | 0 mm | - | - | - |
| 1777775403 | 16.67° C | 44% | 1007 hPa | 0 mm | - | - | - |
| 1777775103 | 16.67° C | 44% | 1006.9 hPa | 0 mm | - | - | - |
| 1777774803 | 16.67° C | 43% | 1006.9 hPa | 0 mm | - | - | - |
| 1777774503 | 17.22° C | 43% | 1007.1 hPa | 0 mm | - | - | - |
| 1777774203 | 16.67° C | 43% | 1007.1 hPa | 0 mm | - | - | - |
| 1777773903 | 16.67° C | 44% | 1007.1 hPa | 0 mm | - | - | - |
| 1777773603 | 16.67° C | 43% | 1006.8 hPa | 0 mm | - | - | - |
| 1777773303 | 17.22° C | 43% | 1007 hPa | 0 mm | - | - | - |
| 1777773002 | 17.22° C | 43% | 1007.1 hPa | 0 mm | - | - | - |
| 1777772703 | 17.22° C | 43% | 1007.1 hPa | 0 mm | - | - | - |
| 1777772403 | 17.22° C | 43% | 1007.1 hPa | 0 mm | - | - | - |
| 1777772103 | 17.22° C | 42% | 1007.2 hPa | 0 mm | - | - | - |
| 1777771803 | 17.78° C | 43% | 1007.1 hPa | 0 mm | - | - | - |
| 1777771503 | 17.78° C | 42% | 1007.2 hPa | 0 mm | - | - | - |
| 1777771203 | 17.78° C | 41% | 1007.2 hPa | 0 mm | - | - | - |
| 1777770903 | 18.33° C | 41% | 1007.2 hPa | 0 mm | - | - | - |
| 1777770603 | 18.33° C | 40% | 1007.1 hPa | 0 mm | - | - | - |
| 1777770302 | 18.33° C | 40% | 1007.3 hPa | 0 mm | - | - | - |
* Rain latest hour (hover to see other rain measurements)
** Current wind speed in m/s (hover to see current wind gust speed)